Port Kembla Harbour Observation History
Time Wind Speed Temp Pressure Rel. Hum Rain
14/11:30am W 15-21 kts 17.1°c 1011.1 hPa n/a n/a
14/11:00am W 17-22 kts 16.6°c 1011.5 hPa n/a n/a
14/10:30am W 17-24 kts 16.4°c 1011.8 hPa n/a n/a
14/10:00am W 20-27 kts 16.0°c 1011.8 hPa n/a n/a
14/09:30am W 20-27 kts 15.4°c 1011.6 hPa n/a n/a
14/09:00am W 16-20 kts 15.4°c 1011.6 hPa n/a n/a
14/08:30am W 15-22 kts 15.3°c 1011.5 hPa n/a n/a
14/08:00am W 10-17 kts 15.0°c 1011.0 hPa n/a n/a
14/07:30am W 13-22 kts 14.9°c 1010.7 hPa n/a n/a
14/07:00am W 12-17 kts 14.9°c 1010.2 hPa n/a n/a
14/06:30am W 16-23 kts 15.2°c 1009.8 hPa n/a n/a
14/06:00am W 13-19 kts 15.4°c 1009.4 hPa n/a n/a
14/05:30am W 8-14 kts 15.9°c 1009.5 hPa n/a n/a
14/05:00am W 12-22 kts 16.1°c 1009.0 hPa n/a n/a
14/04:30am W 11-17 kts 16.2°c 1009.1 hPa n/a n/a
14/04:00am WSW 7-15 kts 16.3°c 1008.5 hPa n/a n/a
14/03:30am SW 7-13 kts 16.6°c 1008.4 hPa n/a n/a
14/03:00am SW 6-14 kts 16.6°c 1008.1 hPa n/a n/a
14/02:30am WSW 7-9 kts 16.8°c 1008.5 hPa n/a n/a
14/02:00am WSW 7-12 kts 16.9°c 1008.6 hPa n/a n/a
14/01:30am WSW 7-11 kts 17.0°c 1008.6 hPa n/a n/a
14/01:00am SW 13-21 kts 17.0°c 1008.8 hPa n/a n/a
14/12:30am WSW 12-19 kts 17.1°c 1008.6 hPa n/a n/a
14/12:00am WSW 11-21 kts 17.4°c 1008.6 hPa n/a n/a
Time Wind Speed Temp Pressure Rel. Hum Rain
13/11:30pm WSW 9-15 kts 17.3°c 1009.1 hPa n/a n/a
13/11:00pm W 16-24 kts 17.6°c 1009.4 hPa n/a n/a
13/10:30pm W 17-23 kts 17.7°c 1009.6 hPa n/a n/a
13/10:12pm W 15-26 kts 18.2°c 1009.8 hPa n/a n/a
13/10:00pm W 11-19 kts 17.9°c 1009.8 hPa n/a n/a
13/09:30pm W 12-18 kts 18.0°c 1009.8 hPa n/a n/a
13/09:00pm W 10-15 kts 18.4°c 1009.6 hPa n/a n/a
13/08:30pm W 5-9 kts 18.4°c 1009.5 hPa n/a n/a
13/08:00pm W 6-7 kts 18.5°c 1009.6 hPa n/a n/a
13/07:30pm WNW 8-11 kts 19.1°c 1009.6 hPa n/a n/a
13/07:00pm W 8-11 kts 19.4°c 1009.7 hPa n/a n/a
13/06:30pm W 8-13 kts 19.3°c 1009.6 hPa n/a n/a
13/06:00pm W 7-10 kts 19.9°c 1009.4 hPa n/a n/a
13/05:30pm W 8-11 kts 19.9°c 1009.4 hPa n/a n/a
13/05:00pm W 11-14 kts 20.6°c 1009.3 hPa n/a n/a
13/04:30pm W 13-18 kts 21.4°c 1009.1 hPa n/a n/a
13/04:00pm N 4-8 kts 20.4°c 1008.7 hPa n/a n/a
13/03:30pm NNE 8-10 kts 19.4°c 1008.5 hPa n/a n/a
13/03:00pm NNE 8-12 kts 19.6°c 1008.5 hPa n/a n/a
13/02:30pm NNE 8-11 kts 19.4°c 1008.7 hPa n/a n/a
13/02:00pm NNE 5-7 kts 19.3°c 1008.9 hPa n/a n/a
13/01:30pm NE 5-7 kts 19.4°c 1009.2 hPa n/a n/a
13/01:00pm ENE 5-7 kts 19.4°c 1009.9 hPa n/a n/a
13/12:30pm ESE 5-8 kts 19.0°c 1010.3 hPa n/a n/a
13/12:00pm ENE 7-8 kts 19.0°c 1011.0 hPa n/a n/a
13/11:30am SE 4-6 kts 19.8°c 1011.4 hPa n/a n/a
13/11:00am SSE 3-6 kts 19.6°c 1012.1 hPa n/a n/a
13/10:30am SW 2-3 kts 20.3°c 1012.4 hPa n/a n/a
13/10:00am W 3-5 kts 19.4°c 1012.8 hPa n/a n/a
13/09:30am W 4-5 kts 18.6°c 1013.1 hPa n/a n/a
13/09:00am WSW 4-6 kts 17.9°c 1013.5 hPa n/a n/a
13/08:30am W 4-5 kts 17.6°c 1013.4 hPa n/a n/a
13/08:00am WSW 3-5 kts 16.1°c 1013.4 hPa n/a n/a
13/07:30am SW 4 kts 15.7°c 1013.4 hPa n/a n/a
13/07:00am SW 2-3 kts 15.5°c 1013.5 hPa n/a n/a
13/06:30am WSW 5-6 kts 15.6°c 1013.4 hPa n/a n/a
13/06:00am WSW 5-6 kts 15.6°c 1013.5 hPa n/a n/a
13/05:30am W 7-8 kts 16.1°c 1013.8 hPa n/a n/a
13/05:00am W 5-6 kts 15.8°c 1013.7 hPa n/a n/a
13/04:30am W 5-7 kts 15.8°c 1014.0 hPa n/a n/a
13/04:00am WNW 4-5 kts 15.8°c 1014.0 hPa n/a n/a
13/03:30am WSW 5-6 kts 15.4°c 1014.1 hPa n/a n/a
13/03:00am WSW 3-5 kts 16.1°c 1014.3 hPa n/a n/a
13/02:30am SW 4-8 kts 16.2°c 1014.6 hPa n/a n/a
13/02:00am SSW 5-7 kts 16.1°c 1014.9 hPa n/a n/a
13/01:30am SW 5-7 kts 15.9°c 1015.3 hPa n/a n/a
13/01:00am SW 5-7 kts 16.3°c 1015.5 hPa n/a n/a
13/12:30am WSW 4-6 kts 16.6°c 1015.3 hPa n/a n/a
13/12:00am WSW 3-4 kts 17.2°c 1015.7 hPa n/a n/a
Time Wind Speed Temp Pressure Rel. Hum Rain
12/11:30pm WSW 3-5 kts 17.1°c 1016.3 hPa n/a n/a
12/11:00pm W 6-8 kts 16.9°c 1016.9 hPa n/a n/a
12/10:30pm WSW 7-9 kts 17.3°c 1017.0 hPa n/a n/a
12/10:00pm WSW 6-8 kts 17.6°c 1017.5 hPa n/a n/a
12/09:30pm SW 4-6 kts 17.4°c 1017.8 hPa n/a n/a
12/09:00pm SW 5-8 kts 17.6°c 1017.8 hPa n/a n/a
12/08:30pm WSW 8-11 kts 17.7°c 1017.6 hPa n/a n/a
12/08:00pm SW 6-9 kts 17.9°c 1017.9 hPa n/a n/a
12/07:30pm SW 6-10 kts 17.9°c 1018.0 hPa n/a n/a
12/07:00pm SW 6-9 kts 17.9°c 1017.8 hPa n/a n/a
12/06:30pm SW 5-8 kts 17.9°c 1017.6 hPa n/a n/a
12/06:00pm SW 6-10 kts 18.1°c 1017.4 hPa n/a n/a
12/05:30pm SSW 4-9 kts 18.5°c 1017.2 hPa n/a n/a
12/05:00pm SSW 5-11 kts 18.8°c 1017.0 hPa n/a n/a
12/04:30pm SSW 5-13 kts 19.1°c 1017.0 hPa n/a n/a
12/04:00pm S 6-12 kts 19.0°c 1017.4 hPa n/a n/a
12/03:30pm S 6-11 kts 19.3°c 1017.6 hPa n/a n/a
12/03:00pm S 6-10 kts 19.4°c 1017.6 hPa n/a n/a
12/02:30pm S 5-11 kts 19.3°c 1017.6 hPa n/a n/a
12/02:00pm S 6-12 kts 19.2°c 1017.7 hPa n/a n/a
12/01:30pm SSW 7-11 kts 19.3°c 1017.9 hPa n/a n/a
12/01:00pm SSW 6-12 kts 18.8°c 1018.3 hPa n/a n/a
12/12:30pm SSE 6-11 kts 18.8°c 1018.8 hPa n/a n/a
12/12:00pm S 5-12 kts 18.4°c 1019.2 hPa n/a n/a
12/11:30am S 6-11 kts 18.9°c 1019.6 hPa n/a n/a
12/11:00am S 3-8 kts 18.8°c 1019.9 hPa n/a n/a
12/10:30am WSW 7-10 kts 17.6°c 1020.1 hPa n/a n/a
12/10:00am WSW 5-7 kts 16.9°c 1020.3 hPa n/a n/a
12/09:30am WSW 5-7 kts 15.9°c 1020.3 hPa n/a n/a
12/09:00am WSW 6-8 kts 15.4°c 1020.2 hPa n/a n/a
12/08:30am WSW 5-7 kts 15.0°c 1020.2 hPa n/a n/a
12/08:00am WSW 4-5 kts 14.9°c 1020.0 hPa n/a n/a
12/07:30am W 3-4 kts 14.7°c 1019.6 hPa n/a n/a
12/07:00am SW 3-4 kts 14.2°c 1019.4 hPa n/a n/a
12/06:30am SW 4-5 kts 13.7°c 1019.1 hPa n/a n/a
12/06:00am SW 3-5 kts 13.9°c 1019.0 hPa n/a n/a
12/05:30am WSW 3-5 kts 14.2°c 1018.7 hPa n/a n/a
12/05:00am WSW 2-3 kts 14.3°c 1018.6 hPa n/a n/a
12/04:30am W 2-3 kts 14.2°c 1018.8 hPa n/a n/a
12/04:00am SW 4-5 kts 13.9°c 1018.4 hPa n/a n/a
12/03:30am WSW 4-7 kts 14.2°c 1018.2 hPa n/a n/a
12/03:00am WSW 3-5 kts 14.2°c 1018.3 hPa n/a n/a
12/02:30am WSW 4-6 kts 14.8°c 1018.4 hPa n/a n/a
12/02:00am WSW 6-8 kts 14.5°c 1018.7 hPa n/a n/a
12/01:30am WSW 6-8 kts 14.7°c 1018.6 hPa n/a n/a
12/01:00am SW 4-5 kts 15.1°c 1018.7 hPa n/a n/a
12/12:30am WSW 5-7 kts 15.4°c 1018.6 hPa n/a n/a
12/12:00am WSW 5-6 kts 15.4°c 1018.7 hPa n/a n/a